Simultaneous Nadir Overpasses (SNOs) Predictions

Prediction of SNOs between AQUA and NOAA-19 Satellite Orbit:

Table of predicted SNOs for the next 14.0 days since TLE Epoch: 10/10/2014
Index Date (AQUA) Time (AQUA) Lat,Lon (AQUA) SZA (AQUA ) Date (NOAA-19) Time (NOAA-19) Lat,Lon (NOAA-19) SZA (NOAA-19 ) Distance(km) Time Diff (sec)
1 10/12/2014 06:03:58 -78.29,-110.90 93.92 10/12/2014 06:04:09 -78.29,-110.90 93.93 0.17 11
2 10/14/2014 10:48:21 -78.45, 177.19 92.91 10/14/2014 10:47:57 -78.45, 177.18 92.90 0.39 24
3 10/14/2014 11:37:15 76.96, -8.71 85.33 10/14/2014 11:38:29 77.06, -8.35 85.40 14.07 74
4 10/16/2014 15:32:43 -78.59, 105.41 91.93 10/16/2014 15:31:44 -78.58, 105.46 91.93 1.35 59
5 10/16/2014 16:22:01 78.20, -84.98 87.60 10/16/2014 16:22:40 78.19, -84.90 87.57 2.28 39
6 10/18/2014 21:06:25 78.44,-157.27 88.69 10/18/2014 21:06:30 78.45,-157.37 88.71 2.34 5
7 10/21/2014 01:50:45 78.53, 131.20 89.59 10/21/2014 01:50:15 78.52, 131.26 89.59 1.39 30
8 10/21/2014 02:40:04 -78.23, -59.64 90.78 10/21/2014 02:41:05 -78.24, -59.75 90.78 2.92 61
9 10/23/2014 06:35:06 78.67, 59.35 90.54 10/23/2014 06:34:02 78.67, 59.38 90.56 0.67 64




NCC Satellite Simultaneous Nadir Overpasses (SNOs) Prediction Service
